Weather History for KVTI - November, 2013

Change the Weather History Date:

Wednesday, November 27, 2013

  Actual Average Record
Temperature  
Mean Temperature 15 °F -  
Max Temperature 24 °F 39 °F 65 °F (1990)
Min Temperature 6 °F 23 °F 0 °F (1959)
Degree Days  
Heating Degree Days 50    
Moisture  
Dew Point 7 °F    
Average Humidity 66    
Maximum Humidity 82    
Minimum Humidity 49    
Precipitation  
Precipitation 0.00 in - - ()
Sea Level Pressure  
Sea Level Pressure 30.27 in    
Wind  
Wind Speed 6 mph (West)    
Max Wind Speed 12 mph    
Max Gust Speed -    
Visibility 10 miles    
Events      
Averages and records for this station are not official NWS values.
T = Trace of Precipitation, MM = Missing Value Source: NWS Daily Summary

Daily Weather History Graph

Daily Weather History Graph

Search for Another Location

Airport or City:

Trip Planner

Search our weather history database for the weather conditions in past years. The results will help you decide how hot, cold, wet, or windy it might be!

Date:

Astronomy

Nov. 27, 2013 Rise Set
Actual Time 7:13 AM CST 4:38 PM CST
Civil Twilight 6:42 AM CST 5:09 PM CST
Nautical Twilight 6:07 AM CST 5:43 PM CST
Astronomical Twilight 5:33 AM CST 6:17 PM CST
Moon 1:09 AM CST (11/27) 1:21 PM CST (11/27)
Length of Visible Light 10h 27m
Length of Day
9h 25m
Waning Crescent, 31% of the Moon is Illuminated
Nov 27
Waning Crescent
Dec 2
New
Dec 9
First Quarter
Dec 17
Full
Dec 25
Last Quarter

Hourly Weather History & Observations

Time (CST) Temp. Windchill Dew Point Humidity Pressure Visibility Wind Dir Wind Speed Gust Speed Precip Events Conditions
12:15 AM 14.5 °F 4.6 °F 5.5 °F 68% 30.30 in 10.0 mi NNW 6.9 mph - N/A   Clear
12:35 AM 14.5 °F 4.6 °F 5.9 °F 69% 30.30 in 10.0 mi NNW 6.9 mph - N/A   Clear
12:55 AM 14.5 °F 4.6 °F 5.9 °F 69% 30.31 in 10.0 mi NNW 6.9 mph - N/A   Clear
1:15 AM 12.7 °F 2.4 °F 4.3 °F 69% 30.32 in 10.0 mi NNW 6.9 mph - N/A   Clear
1:35 AM 12.0 °F 1.5 °F 3.7 °F 69% 30.32 in 10.0 mi NNW 6.9 mph - N/A   Clear
1:55 AM 12.0 °F 0.5 °F 3.7 °F 69% 30.32 in 10.0 mi North 8.1 mph - N/A   Clear
2:15 AM 12.0 °F 1.5 °F 3.9 °F 70% 30.32 in 10.0 mi NNW 6.9 mph - N/A   Clear
2:35 AM 9.5 °F -0.3 °F 2.8 °F 74% 30.33 in 10.0 mi NW 5.8 mph - N/A   Clear
2:55 AM 9.5 °F 1.2 °F 4.5 °F 80% 30.33 in 10.0 mi NW 4.6 mph - N/A   Clear
3:15 AM 9.5 °F -0.3 °F 4.6 °F 81% 30.32 in 10.0 mi NNW 5.8 mph - N/A   Clear
3:35 AM 12.0 °F 0.5 °F 5.2 °F 74% 30.32 in 10.0 mi NNW 8.1 mph - N/A   Clear
3:55 AM 12.0 °F 1.5 °F 4.6 °F 72% 30.32 in 10.0 mi NNW 6.9 mph - N/A   Clear
4:15 AM 12.0 °F 1.5 °F 4.8 °F 73% 30.33 in 10.0 mi NNW 6.9 mph - N/A   Clear
4:35 AM 10.9 °F 1.4 °F 3.9 °F 73% 30.33 in 10.0 mi NW 5.8 mph - N/A   Clear
4:55 AM 9.3 °F -0.5 °F 4.3 °F 80% 30.33 in 10.0 mi NW 5.8 mph - N/A   Clear
5:15 AM 9.5 °F -0.3 °F 4.6 °F 81% 30.33 in 10.0 mi NNW 5.8 mph - N/A   Clear
5:35 AM 6.8 °F -0.1 °F 2.3 °F 82% 30.34 in 10.0 mi WNW 3.5 mph - N/A   Clear
5:55 AM 9.0 °F 2.4 °F 4.3 °F 81% 30.34 in 10.0 mi West 3.5 mph - N/A   Clear
6:15 AM 6.8 °F -2.0 °F 2.3 °F 82% 30.35 in 10.0 mi WNW 4.6 mph - N/A   Clear
6:35 AM 6.8 °F -2.0 °F 2.3 °F 82% 30.35 in 10.0 mi WNW 4.6 mph - N/A   Clear
6:55 AM 6.8 °F -2.0 °F 2.3 °F 82% 30.36 in 10.0 mi WNW 4.6 mph - N/A   Clear
7:15 AM 6.8 °F -0.1 °F 2.3 °F 82% 30.36 in 10.0 mi NW 3.5 mph - N/A   Clear
7:35 AM 8.8 °F 2.2 °F 4.1 °F 81% 30.36 in 10.0 mi NW 3.5 mph - N/A   Clear
7:55 AM 9.5 °F 3.0 °F 4.6 °F 81% 30.35 in 10.0 mi WNW 3.5 mph - N/A   Clear
8:15 AM 9.9 °F 1.6 °F 4.6 °F 79% 30.36 in 10.0 mi NW 4.6 mph - N/A   Clear
8:35 AM 12.0 °F 2.7 °F 5.9 °F 76% 30.36 in 10.0 mi North 5.8 mph - N/A   Clear
8:55 AM 12.0 °F 1.5 °F 5.5 °F 75% 30.35 in 10.0 mi NNW 6.9 mph - N/A   Clear
9:15 AM 14.5 °F 3.6 °F 6.8 °F 71% 30.36 in 10.0 mi North 8.1 mph - N/A   Clear
9:35 AM 14.5 °F 5.7 °F 6.3 °F 70% 30.35 in 10.0 mi North 5.8 mph - N/A   Clear
9:55 AM 17.1 °F 6.6 °F 7.7 °F 67% 30.35 in 10.0 mi North 8.1 mph - N/A   Clear
10:15 AM 17.1 °F 7.6 °F 7.0 °F 65% 30.35 in 10.0 mi North 6.9 mph - N/A   Clear
10:35 AM 17.4 °F 12.1 °F 6.8 °F 63% 30.35 in 10.0 mi North 3.5 mph - N/A   Clear
10:55 AM 19.4 °F 12.8 °F 7.5 °F 60% 30.34 in 10.0 mi North 4.6 mph - N/A   Clear
11:15 AM 19.4 °F 11.5 °F 6.6 °F 58% 30.34 in 10.0 mi NNW 5.8 mph - N/A   Clear
11:35 AM 20.3 °F 15.4 °F 6.4 °F 55% 30.33 in 10.0 mi North 3.5 mph - N/A   Clear
11:55 AM 20.8 °F - 7.0 °F 55% 30.32 in 10.0 mi Calm Calm - N/A   Clear
12:15 PM 22.1 °F 14.7 °F 6.8 °F 52% 30.31 in 10.0 mi WNW 5.8 mph - N/A   Clear
12:35 PM 22.1 °F 15.9 °F 6.1 °F 50% 30.30 in 10.0 mi NW 4.6 mph - N/A   Clear
12:55 PM 22.8 °F 15.5 °F 6.3 °F 49% 30.30 in 10.0 mi WSW 5.8 mph - N/A   Clear
1:15 PM 22.8 °F - 6.1 °F 49% 30.28 in 10.0 mi Calm Calm - N/A   Clear
1:35 PM 24.1 °F 16.0 °F 7.7 °F 50% 30.28 in 10.0 mi WSW 6.9 mph - N/A   Clear
1:55 PM 24.6 °F 17.7 °F 8.8 °F 51% 30.27 in 10.0 mi WSW 5.8 mph - N/A   Clear
2:15 PM 24.4 °F 20.1 °F 8.8 °F 51% 30.25 in 10.0 mi SW 3.5 mph - N/A   Clear
2:35 PM 23.4 °F 16.2 °F 7.7 °F 51% 30.25 in 10.0 mi SSW 5.8 mph - N/A   Clear
2:55 PM 24.3 °F 13.9 °F 8.6 °F 51% 30.24 in 10.0 mi SW 10.4 mph - N/A   Clear
3:15 PM 22.6 °F 13.4 °F 6.3 °F 50% 30.24 in 10.0 mi SSW 8.1 mph - N/A   Clear
3:35 PM 22.1 °F 13.7 °F 7.7 °F 54% 30.23 in 10.0 mi SSW 6.9 mph - N/A   Clear
3:55 PM 22.1 °F 14.7 °F 8.6 °F 56% 30.23 in 10.0 mi SSW 5.8 mph - N/A   Clear
4:15 PM 22.1 °F 15.9 °F 8.6 °F 56% 30.23 in 10.0 mi SW 4.6 mph - N/A   Clear
4:35 PM 21.0 °F 14.6 °F 8.4 °F 58% 30.22 in 10.0 mi SSW 4.6 mph - N/A   Clear
4:55 PM 20.8 °F 16.0 °F 9.3 °F 61% 30.21 in 10.0 mi South 3.5 mph - N/A   Clear
5:15 PM 20.7 °F 15.8 °F 9.3 °F 62% 30.20 in 10.0 mi South 3.5 mph - N/A   Clear
5:35 PM 20.8 °F 13.2 °F 8.6 °F 59% 30.20 in 10.0 mi South 5.8 mph - N/A   Clear
5:55 PM 19.9 °F 12.1 °F 8.6 °F 61% 30.19 in 10.0 mi South 5.8 mph - N/A   Clear
6:15 PM 19.4 °F 12.8 °F 9.5 °F 65% 30.19 in 10.0 mi South 4.6 mph - N/A   Clear
6:35 PM 19.4 °F 12.8 °F 9.3 °F 65% 30.20 in 10.0 mi South 4.6 mph - N/A   Clear
6:55 PM 19.4 °F 11.5 °F 9.5 °F 65% 30.19 in 7.0 mi SSE 5.8 mph - N/A   Clear
7:15 PM 19.4 °F 10.4 °F 10.4 °F 68% 30.17 in 10.0 mi South 6.9 mph - N/A   Clear
7:35 PM 19.4 °F 7.9 °F 9.5 °F 65% 30.15 in 10.0 mi SSE 10.4 mph - N/A   Clear
7:55 PM 19.8 °F 8.3 °F 9.3 °F 64% 30.14 in 10.0 mi South 10.4 mph - N/A   Clear
8:15 PM 20.5 °F 10.8 °F 9.7 °F 63% 30.15 in 10.0 mi South 8.1 mph - N/A   Clear
8:35 PM 20.8 °F 12.1 °F 9.5 °F 62% 30.16 in 10.0 mi South 6.9 mph - N/A   Clear
8:55 PM 19.9 °F 12.1 °F 9.0 °F 62% 30.17 in 10.0 mi South 5.8 mph - N/A   Clear
9:15 PM 18.7 °F 9.5 °F 9.7 °F 68% 30.17 in 10.0 mi SE 6.9 mph - N/A   Clear
9:35 PM 19.4 °F 9.5 °F 10.0 °F 67% 30.16 in 10.0 mi SE 8.1 mph - N/A   Clear
9:55 PM 17.6 °F 9.3 °F 9.0 °F 69% 30.17 in 10.0 mi SSE 5.8 mph - N/A   Scattered Clouds
10:15 PM 18.1 °F 10.0 °F 9.3 °F 68% 30.17 in 10.0 mi SE 5.8 mph - N/A   Scattered Clouds
10:35 PM 17.8 °F 7.5 °F 9.0 °F 68% 30.16 in 10.0 mi SE 8.1 mph - N/A   Clear
10:55 PM 19.4 °F 8.6 °F 10.2 °F 68% 30.16 in 10.0 mi SE 9.2 mph - N/A   Clear
11:15 PM 19.4 °F 7.9 °F 10.0 °F 67% 30.15 in 10.0 mi SE 10.4 mph - N/A   Clear
11:35 PM 19.4 °F 9.5 °F 9.9 °F 66% 30.14 in 10.0 mi SSE 8.1 mph - N/A   Clear
11:55 PM 19.4 °F 7.2 °F 10.2 °F 68% 30.13 in 10.0 mi SSE 11.5 mph - N/A   Clear